Time,TemperatureF,DewpointF,PressureIn,WindDirection,WindDirectionDegrees,WindSpeedMPH,WindSpeedGustMPH,Humidity,HourlyPrecipIn,Conditions,Clouds,dailyrainin,SoftwareType,DateUTC
2013-01-14 01:00:00,-11.0,-17.0,-100.00,North,-999,0.0,0.0,77,-99.99,,,-99.99,,2013-01-14 08:00:00,
2013-01-14 01:43:00,-11.0,-17.0,-100.00,North,-999,0.0,0.0,77,-99.99,,,-99.99,,2013-01-14 08:43:00,
2013-01-14 01:53:00,-11.0,-17.0,-100.00,North,-999,0.0,0.0,77,-99.99,,,-99.99,,2013-01-14 08:53:00,
2013-01-14 02:00:00,-12.0,-17.0,-100.00,North,-999,0.0,0.0,77,-99.99,,,-99.99,,2013-01-14 09:00:00,
2013-01-14 02:34:00,-12.0,-17.0,-100.00,North,-999,0.0,0.0,77,-99.99,,,-99.99,,2013-01-14 09:34:00,
2013-01-14 02:43:00,-12.0,-17.0,-100.00,North,-999,0.0,0.0,77,-99.99,,,-99.99,,2013-01-14 09:43:00,
2013-01-14 02:53:00,-12.0,-17.0,-100.00,North,-999,0.0,0.0,77,-99.99,,,-99.99,,2013-01-14 09:53:00,
2013-01-14 03:00:00,-12.0,-17.0,-100.00,North,-999,0.0,0.0,77,-99.99,,,-99.99,,2013-01-14 10:00:00,
2013-01-14 03:43:00,-12.0,-17.0,-100.00,North,-999,0.0,0.0,77,-99.99,,,-99.99,,2013-01-14 10:43:00,
2013-01-14 03:53:00,-12.0,-17.0,-100.00,North,-999,0.0,0.0,77,-99.99,,,-99.99,,2013-01-14 10:53:00,
2013-01-14 04:00:00,-13.0,-18.0,-100.00,North,-999,0.0,0.0,76,-99.99,,,-99.99,,2013-01-14 11:00:00,
2013-01-14 04:43:00,-13.0,-18.0,-100.00,North,-999,0.0,0.0,76,-99.99,,,-99.99,,2013-01-14 11:43:00,
2013-01-14 04:53:00,-13.0,-18.0,-100.00,North,-999,0.0,0.0,76,-99.99,,,-99.99,,2013-01-14 11:53:00,
2013-01-14 05:00:00,-13.0,-18.0,-100.00,North,-999,0.0,0.0,76,-99.99,,,-99.99,,2013-01-14 12:00:00,
2013-01-14 05:43:00,-13.0,-18.0,-100.00,North,-999,0.0,0.0,76,-99.99,,,-99.99,,2013-01-14 12:43:00,
2013-01-14 05:53:00,-13.0,-18.0,-100.00,North,-999,0.0,0.0,76,-99.99,,,-99.99,,2013-01-14 12:53:00,
2013-01-14 06:00:00,-13.0,-18.0,-100.00,North,-999,0.0,0.0,76,-99.99,,,-99.99,,2013-01-14 13:00:00,
2013-01-14 06:33:00,-13.0,-18.0,-100.00,North,-999,0.0,0.0,76,-99.99,,,-99.99,,2013-01-14 13:33:00,
2013-01-14 06:43:00,-13.0,-18.0,-100.00,North,-999,0.0,0.0,76,-99.99,,,-99.99,,2013-01-14 13:43:00,
2013-01-14 06:53:00,-13.0,-18.0,-100.00,North,-999,0.0,0.0,76,-99.99,,,-99.99,,2013-01-14 13:53:00,
2013-01-14 07:00:00,-13.0,-19.0,-100.00,North,-999,0.0,0.0,76,-99.99,,,-99.99,,2013-01-14 14:00:00,
2013-01-14 07:33:00,-13.0,-19.0,-100.00,North,-999,0.0,0.0,76,-99.99,,,-99.99,,2013-01-14 14:33:00,
2013-01-14 07:43:00,-13.0,-19.0,-100.00,North,-999,0.0,0.0,76,-99.99,,,-99.99,,2013-01-14 14:43:00,
2013-01-14 07:53:00,-13.0,-19.0,-100.00,North,-999,0.0,0.0,76,-99.99,,,-99.99,,2013-01-14 14:53:00,
2013-01-14 08:00:00,-14.0,-19.0,-100.00,North,-999,0.0,0.0,75,-99.99,,,-99.99,,2013-01-14 15:00:00,
2013-01-14 08:43:00,-14.0,-19.0,-100.00,North,-999,0.0,0.0,75,-99.99,,,-99.99,,2013-01-14 15:43:00,
2013-01-14 08:53:00,-14.0,-19.0,-100.00,North,-999,0.0,0.0,75,-99.99,,,-99.99,,2013-01-14 15:53:00,
2013-01-14 09:00:00,-13.0,-18.0,-100.00,WNW,295,3.0,9.0,76,-99.99,,,-99.99,,2013-01-14 16:00:00,
2013-01-14 09:33:00,-13.0,-18.0,-100.00,WNW,295,3.0,9.0,76,-99.99,,,-99.99,,2013-01-14 16:33:00,
2013-01-14 09:43:00,-13.0,-18.0,-100.00,WNW,295,3.0,9.0,76,-99.99,,,-99.99,,2013-01-14 16:43:00,
2013-01-14 09:53:00,-13.0,-18.0,-100.00,WNW,295,3.0,9.0,76,-99.99,,,-99.99,,2013-01-14 16:53:00,
2013-01-14 12:43:00,4.0,0.0,-100.00,WNW,298,2.0,4.0,83,-99.99,,,-99.99,,2013-01-14 19:43:00,
2013-01-14 12:53:00,4.0,0.0,-100.00,WNW,298,2.0,4.0,83,-99.99,,,-99.99,,2013-01-14 19:53:00,
2013-01-14 13:43:00,4.0,0.0,-100.00,WNW,294,3.0,6.0,83,-99.99,,,-99.99,,2013-01-14 20:43:00,
2013-01-14 13:53:00,4.0,0.0,-100.00,WNW,294,3.0,6.0,83,-99.99,,,-99.99,,2013-01-14 20:53:00,
2013-01-14 14:43:00,2.0,-3.0,-100.00,NW,315,4.0,7.0,81,-99.99,,,-99.99,,2013-01-14 21:43:00,
2013-01-14 14:53:00,2.0,-3.0,-100.00,NW,315,4.0,7.0,81,-99.99,,,-99.99,,2013-01-14 21:53:00,
2013-01-14 16:00:00,-6.0,-11.0,-100.00,WNW,299,5.0,9.0,79,-99.99,,,-99.99,,2013-01-14 23:00:00,
2013-01-14 16:43:00,-6.0,-11.0,-100.00,WNW,299,5.0,9.0,79,-99.99,,,-99.99,,2013-01-14 23:43:00,
2013-01-14 16:53:00,-6.0,-11.0,-100.00,WNW,299,5.0,9.0,79,-99.99,,,-99.99,,2013-01-14 23:53:00,
2013-01-14 17:00:00,-10.0,-15.0,-100.00,NW,304,7.0,14.0,77,-99.99,,,-99.99,,2013-01-15 00:00:00,
2013-01-14 17:43:00,-10.0,-15.0,-100.00,NW,304,7.0,14.0,77,-99.99,,,-99.99,,2013-01-15 00:43:00,
2013-01-14 17:53:00,-10.0,-15.0,-100.00,NW,304,7.0,14.0,77,-99.99,,,-99.99,,2013-01-15 00:53:00,
2013-01-14 19:00:00,-9.0,-14.0,-100.00,NW,323,12.0,28.0,78,-99.99,,,-99.99,,2013-01-15 02:00:00,
2013-01-14 19:42:00,-9.0,-14.0,-100.00,NW,323,12.0,28.0,78,-99.99,,,-99.99,,2013-01-15 02:42:00,
2013-01-14 19:53:00,-9.0,-14.0,-100.00,NW,323,12.0,28.0,78,-99.99,,,-99.99,,2013-01-15 02:53:00,
2013-01-14 21:00:00,-5.0,-10.0,-100.00,NW,314,13.0,23.0,80,-99.99,,,-99.99,,2013-01-15 04:00:00,
2013-01-14 21:33:00,-5.0,-10.0,-100.00,NW,314,13.0,23.0,80,-99.99,,,-99.99,,2013-01-15 04:33:00,
2013-01-14 21:42:00,-5.0,-10.0,-100.00,NW,314,13.0,23.0,80,-99.99,,,-99.99,,2013-01-15 04:42:00,
2013-01-14 21:52:00,-5.0,-10.0,-100.00,NW,314,13.0,23.0,80,-99.99,,,-99.99,,2013-01-15 04:52:00,
2013-01-14 22:00:00,-5.0,-9.0,-100.00,NW,317,12.0,26.0,80,-99.99,,,-99.99,,2013-01-15 05:00:00,
2013-01-14 22:42:00,-5.0,-9.0,-100.00,NW,317,12.0,26.0,80,-99.99,,,-99.99,,2013-01-15 05:42:00,
2013-01-14 22:52:00,-5.0,-9.0,-100.00,NW,317,12.0,26.0,80,-99.99,,,-99.99,,2013-01-15 05:52:00,
2013-01-14 23:00:00,-5.0,-10.0,-100.00,NW,315,13.0,23.0,80,-99.99,,,-99.99,,2013-01-15 06:00:00,
2013-01-14 23:43:00,-5.0,-10.0,-100.00,NW,315,13.0,23.0,80,-99.99,,,-99.99,,2013-01-15 06:43:00,
2013-01-14 23:53:00,-5.0,-10.0,-100.00,NW,315,13.0,23.0,80,-99.99,,,-99.99,,2013-01-15 06:53:00,